Wind from 240 at 4 knots

Air temperature 3.0° C
Dewpoint -5.0° C

Last reported at 2014-Apr-24 19:50 UTC.
Time now 2014-Apr-24 22:24 UTC

Location: N 61°57' E 028°57'.
View on Google Maps.

See reports from other nearby stations

Tides Stations Pressure Air Temp Water Temp Dewpoint Dewpoint depression Visibility Wind Speed Wind Dir Waves Ship positions

  
sailing weather and tide predictions

SAVONLINNA weather

date/time (UTC)wind fromknots sea level pressurealtimeterstation pressurevisibilityair tempwater tempwave heightnotes
2014-Apr-24 21:20 250 6 4.0
2014-Apr-24 20:50 250 6 3.0
2014-Apr-24 20:20 240 4 3.0
2014-Apr-24 19:50 240 4 3.0
2014-Apr-24 19:20 240 5 5.0
2014-Apr-24 18:50 260 4 4.0
2014-Apr-24 18:20 250 6 7.0
2014-Apr-24 17:50 260 7 8.0
2014-Apr-24 17:20 250 7 10.0
2014-Apr-24 16:20 280 9 11.0
2014-Apr-24 15:50 270 9 11.0
2014-Apr-24 15:20 280 8 11.0
2014-Apr-24 14:50 270 9 11.0
2014-Apr-24 14:20 260 10 11.0
2014-Apr-24 13:50 280 11 10.0
2014-Apr-24 13:20 260 11 10.0
2014-Apr-24 12:50 240 10 10.0
2014-Apr-24 12:20 260 10 10.0
2014-Apr-24 11:50 280 9 10.0
2014-Apr-24 11:20 260 10 9.0
2014-Apr-24 10:50 270 9 8.0
2014-Apr-24 10:20 260 10 8.0
2014-Apr-24 09:50 260 10 8.0
2014-Apr-24 09:20 280 10 7.0
2014-Apr-24 08:50 270 10 7.0
2014-Apr-24 08:20 270 9 6.0
2014-Apr-24 07:50 260 8 6.0
2014-Apr-24 07:20 270 9 5.0
2014-Apr-24 06:50 260 7 4.0
2014-Apr-24 06:20 240 7 4.0
2014-Apr-24 05:50 260 7 3.0
2014-Apr-24 05:20 250 6 2.0
2014-Apr-24 04:50 270 4 2.0
2014-Apr-24 04:20 260 5 1.0
2014-Apr-24 03:50 250 2 -2.0
2014-Apr-24 03:20 240 1 -4.0
2014-Apr-24 02:50 230 2 -4.0
2014-Apr-24 02:20 260 2 -5.0
2014-Apr-24 01:50 260 1 -5.0
2014-Apr-24 01:20 260 2 -5.0
2014-Apr-24 00:50 280 2 -5.0
2014-Apr-24 00:20 260 3 -5.0
2014-Apr-23 23:50 250 1 -4.0
2014-Apr-23 23:20 290 2 -4.0
2014-Apr-23 22:50 290 1 -3.0
2014-Apr-23 22:20 300 3 -2.0
2014-Apr-23 21:50 290 3 -2.0
2014-Apr-23 21:20 310 3 -2.0
2014-Apr-23 20:50 310 2 -2.0
2014-Apr-23 20:20 300 4 -2.0
2014-Apr-23 19:50 310 3 -1.0
2014-Apr-23 19:20 320 2 -1.0
2014-Apr-23 18:50 330 3 3.0
2014-Apr-23 18:20 320 5 4.0
2014-Apr-23 17:50 310 7 4.0
2014-Apr-23 17:20 310 8 5.0
2014-Apr-23 16:50 310 10 6.0
2014-Apr-23 16:20 310 10 6.0
2014-Apr-23 15:50 310 14 6.0
2014-Apr-23 15:20 310 12 6.0
2014-Apr-23 14:50 320 12 7.0
2014-Apr-23 14:20 300 12 7.0
2014-Apr-23 13:50 320 12 gusting 23 7.0
2014-Apr-23 13:20 310 11 8.0
2014-Apr-23 12:50 320 12 7.0
2014-Apr-23 12:20 320 13 7.0
2014-Apr-23 11:50 320 13 gusting 24 7.0
2014-Apr-23 11:20 300 13 7.0
2014-Apr-23 10:50 310 15 6.0
2014-Apr-23 10:20 330 12 6.0
2014-Apr-23 09:50 300 12 gusting 22 6.0
2014-Apr-23 09:20 300 14 6.0
2014-Apr-23 08:50 320 14 6.0
2014-Apr-23 08:20 320 13 5.0
2014-Apr-23 07:50 300 13 5.0
2014-Apr-23 07:20 320 14 4.0
2014-Apr-23 06:50 320 12 gusting 22 4.0
2014-Apr-23 06:20 320 10 4.0
2014-Apr-23 05:50 320 7 4.0
2014-Apr-23 05:20 320 8 3.0
2014-Apr-23 04:50 320 8 2.0
2014-Apr-23 04:20 320 7 2.0
2014-Apr-23 03:20 310 7 1.0
2014-Apr-23 02:50 300 7 -0.0
2014-Apr-23 02:20 310 6 1.0
2014-Apr-23 01:50 310 6 1.0
2014-Apr-23 01:20 320 8 1.0
2014-Apr-23 00:50 320 7 2.0
2014-Apr-23 00:20 310 7 2.0
2014-Apr-22 23:50 310 6 2.0
2014-Apr-22 23:20 310 7 2.0
2014-Apr-22 22:50 300 6 1.0
2014-Apr-22 22:20 300 5 2.0